Погода в Зеленом Доле

Россия / Алтайский край     52°07′11″N   84°08′09″E
темп.,
°C
ветер,
м/с
пор.,
м/с
влажн.,
%
обл.,
%
осадки,
мм/ч
давл.,
гПа
погр.,
м
24 января, пн
пн2401:00−22ю22958 0.0 103811
04:00−21ю329534 0.0 103817
07:00−19ююз229538 0.0 103825
10:00−20ююз2296100 0.0 103921
13:00−15сз119382 0.1 1039124
16:00−15с119774 0.0 103924
19:00−21ююв2110087 0.0 10419
22:00−23ююв229931 0.0 104110
25 января, вт
вт2501:00−22ю229861 0.0 103912
04:00−23ю229542 0.0 103911
07:00−24ю229229 0.0 103911
10:00−24ю22897 0.0 103915
13:00−16зсз118331 0.0 1037107
16:00−16сз119495 0.0 103691
19:00−22ю229983 0.0 103711
22:00−21ю2293100 0.0 103712
26 января, ср
ср2601:00−20ю2291100 0.0 103615
04:00−18ююв2190100 0.0 103414
07:00−18ююв2289100 0.0 103314
10:00−15юв2186100 0.0 103223
13:00−10всв0175100 0.0 103087
16:00−10с1187100 0.0 103093
19:00−12вюв1193100 0.0 103117
22:00−10вюв1296100 0.6 103262
27 января, чт
чт2701:00−10вюв1196100 1.6 103235
04:00−10вюв0197100 1.1 103318
07:00−12в0097100 1.7 103510
10:00−11св129792 0.3 103742
13:00−9ссв2293100 0.6 1037298
16:00−10ссв229598 0.1 1038207
19:00−16юв1110092 0.2 10409
22:00−18ююв229999 0.1 104116
28 января, пт
пт2801:00−20ю329839 0.1 104014
04:00−21ю329541 0.0 104115
07:00−22ююв32916 0.0 104014
10:00−21ю22885 0.0 104016
13:00−14в11802 0.0 103790
16:00−14св22925 0.0 103650
19:00−21ююв21985 0.0 10379
22:00−22ююв22968 0.0 103711